"Pseudo-MPEC" for P115ZDs

Created 2020 Sep 17 0:07:24 UT using Find_Orb

Click here for an explanation of pseudo-MPECs

 
 Astrometry: 
     P115ZDs  C2020 09 14AdWq!)lH,K5S)Z)6,jSRvaH.N4^;0r[$UMLaAstrometryx;opxOF51
     P115ZDs  C2020 09 1456D-CP)*PQ9%@wtPyGeW8]jS3`Qb:@R^MuhV?b?x\rfredacted;F51
     P115ZDs  C2020 09 14osQ'Piclickdn3='soChivL=K;MQ4ip2Kf^76Xh=b1[VDS7rHZ`7F51
     P115ZDs ^C2020 09 16.32485800 03 09.873-17 30 06.18   ~9GM7 21.65GVNEOCP568
     P115ZDs ^C2020 09 16.32603500 03 09.940-17 30 04.51   ~9GM7 21.54GVNEOCP568
     P115ZDs ^C2020 09 16.32740400 03 10.006-17 30 02.61   ~9GM7 21.86GVNEOCP568
     P115ZDs ^C2020 09 16.32864000 03 10.076-17 30 00.96   ~9GM7 21.95GVNEOCP568
     P115ZDs  C2020 09 160f.\[\3o%^[Q$@B:R1W:vmJuFaGHAa9,MHBc^U2cmn:rh72tHDhxF51
     P115ZDs  C2020 09 1678s7yt_t[xcFHL^X8H%`wNSdUbjTS('j'VO7M(hereNfor+2=?ZBF51
     P115ZDs  C2020 09 16%Q@.*^0:F!HS)OCe_rgwyIwM.$`KwexplanationtnKh0VLAJLvrF51

Station data:
(568) Mauna Kea  (N19.826116 W155.472200)  US/Hawaii.
(F51) Pan-STARRS 1, Haleakala  (N20.707235 W156.255910)  US/Hawaii.
   Observers N. Primak, A. Schultz, S. Watters, J. Thiel, T. Goggia. Measurer
   PS1 Science Consortium. 1.8-m Ritchey-Chrétien + CCD.

Orbital elements:  P115ZDs
   Perihelion 2020 Jul 27.558727 +/- 0.0779 TT = 13:24:34 (JD 2459058.058727)
Epoch 2020 Sep 16.0 TT = JDT 2459108.5   Earth MOID: 0.0069   Ma: 0.0627
M  14.33577401 +/- 0.7              (J2000 ecliptic)          AutoNEOCP
n   0.28420722 +/- 0.0139           Peri.  146.24629 +/- 1.1
a   2.29111018 +/- 0.0746           Node   146.49771 +/- 0.6
e   0.5953584 +/- 0.0154            Incl.    4.52287 +/- 0.13
P   3.47                   H 25.7   G  0.15   U  9.9  
q 0.92707830 +/- 0.00563    Q 3.65514206 +/- 0.159
From 10 observations 2020 Sept. 14-16; mean residual 0".08
Residuals in arcseconds: 
200914 F51  .05-  .05-    200916 568  .03+  .03+    200916 F51  .11+  .00     
200914 F51  .02+  .16+    200916 568  .04-  .04+    200916 F51  .10-  .13+    
200914 F51  .03+  .11-    200916 568  .05+  .02-    
200916 568  .05-  .01-    200916 F51  .02-  .16-    

Ephemerides (geocentric):
Date (UTC) HH   RA              Dec         delta   r     elong  mag " sig PA
---- -- -- --  -------------   -----------  ------ ------ -----  --- ---- ---
2020 09 17 00  00 03 52.439   -17 13 38.17  .15238 1.1523 163.8 22.7 2.09  20
2020 09 17 01  00 03 55.113   -17 12 40.74  .15271 1.1526 163.9 22.7 2.24  20
2020 09 17 02  00 03 57.773   -17 11 43.50  .15303 1.1529 163.9 22.8 2.39  21
2020 09 17 03  00 04 00.419   -17 10 46.44  .15335 1.1532 163.9 22.8 2.54  22
2020 09 17 04  00 04 03.052   -17 09 49.55  .15368 1.1535 163.9 22.8 2.69  22
2020 09 17 05  00 04 05.672   -17 08 52.84  .15400 1.1538 163.9 22.8 2.85  23
2020 09 17 06  00 04 08.278   -17 07 56.31  .15432 1.1541 163.9 22.8 3.01  23
2020 09 17 07  00 04 10.872   -17 06 59.96  .15465 1.1545 163.9 22.8 3.18  24
2020 09 17 08  00 04 13.452   -17 06 03.78  .15497 1.1548 163.9 22.8 3.34  24
2020 09 17 09  00 04 16.020   -17 05 07.77  .15530 1.1551 163.9 22.8 3.51  24
2020 09 17 10  00 04 18.575   -17 04 11.93  .15562 1.1554 163.9 22.8 3.68  25
2020 09 17 11  00 04 21.117   -17 03 16.26  .15595 1.1557 163.9 22.8 3.86  25
2020 09 17 12  00 04 23.646   -17 02 20.77  .15627 1.1560 164.0 22.8 4.04  25
2020 09 17 13  00 04 26.163   -17 01 25.44  .15660 1.1563 164.0 22.8 4.22  26
2020 09 17 14  00 04 28.667   -17 00 30.28  .15692 1.1566 164.0 22.8 4.40  26
2020 09 17 15  00 04 31.159   -16 59 35.28  .15725 1.1569 164.0 22.8 4.58  26
2020 09 17 16  00 04 33.638   -16 58 40.46  .15757 1.1572 164.0 22.8 4.77  26
2020 09 17 17  00 04 36.106   -16 57 45.79  .15790 1.1576 164.0 22.8 4.96  26
2020 09 17 18  00 04 38.561   -16 56 51.29  .15822 1.1579 164.0 22.8 5.15  27
2020 09 17 19  00 04 41.004   -16 55 56.95  .15855 1.1582 164.0 22.8 5.35  27
2020 09 17 20  00 04 43.435   -16 55 02.78  .15888 1.1585 164.0 22.8 5.55  27
2020 09 17 21  00 04 45.854   -16 54 08.76  .15920 1.1588 164.0 22.8 5.74  27
2020 09 17 22  00 04 48.261   -16 53 14.90  .15953 1.1591 164.0 22.8 5.95  27
2020 09 17 23  00 04 50.657   -16 52 21.21  .15986 1.1594 164.0 22.9 6.15  27
2020 09 18 00  00 04 53.041   -16 51 27.66  .16018 1.1597 164.1 22.9 6.36  27
2020 09 18 01  00 04 55.413   -16 50 34.28  .16051 1.1600 164.1 22.9 6.56  28
2020 09 18 02  00 04 57.774   -16 49 41.05  .16084 1.1603 164.1 22.9 6.77  28
2020 09 18 03  00 05 00.123   -16 48 47.98  .16116 1.1607 164.1 22.9 6.99  28
2020 09 18 04  00 05 02.461   -16 47 55.06  .16149 1.1610 164.1 22.9 7.20  28
2020 09 18 05  00 05 04.788   -16 47 02.29  .16182 1.1613 164.1 22.9 7.42  28
2020 09 18 06  00 05 07.103   -16 46 09.67  .16214 1.1616 164.1 22.9 7.64  28
2020 09 18 07  00 05 09.407   -16 45 17.21  .16247 1.1619 164.1 22.9 7.86  28
2020 09 18 08  00 05 11.701   -16 44 24.89  .16280 1.1622 164.1 22.9 8.08  28
2020 09 18 09  00 05 13.983   -16 43 32.72  .16313 1.1625 164.1 22.9 8.30  28
2020 09 18 10  00 05 16.254   -16 42 40.70  .16345 1.1628 164.1 22.9 8.53  28
2020 09 18 11  00 05 18.514   -16 41 48.83  .16378 1.1632 164.1 22.9 8.76  28
2020 09 18 12  00 05 20.764   -16 40 57.11  .16411 1.1635 164.1 22.9 8.99  28
2020 09 18 13  00 05 23.003   -16 40 05.53  .16444 1.1638 164.2 22.9 9.22  28
2020 09 18 14  00 05 25.231   -16 39 14.09  .16477 1.1641 164.2 22.9 9.45  29
2020 09 18 15  00 05 27.449   -16 38 22.80  .16510 1.1644 164.2 22.9 9.69  29
2020 09 18 16  00 05 29.656   -16 37 31.65  .16542 1.1647 164.2 22.9 9.93  29
2020 09 18 17  00 05 31.853   -16 36 40.64  .16575 1.1650 164.2 22.9 10.2  29
2020 09 18 18  00 05 34.039   -16 35 49.78  .16608 1.1653 164.2 22.9 10.4  29
2020 09 18 19  00 05 36.215   -16 34 59.05  .16641 1.1657 164.2 22.9 10.6  29
2020 09 18 20  00 05 38.381   -16 34 08.46  .16674 1.1660 164.2 22.9 10.9  29
2020 09 18 21  00 05 40.537   -16 33 18.01  .16707 1.1663 164.2 23.0 11.1  29
2020 09 18 22  00 05 42.683   -16 32 27.70  .16740 1.1666 164.2 23.0 11.4  29
2020 09 18 23  00 05 44.818   -16 31 37.53  .16773 1.1669 164.2 23.0 11.6  29